www.pogodaiklimat.ru

Погода и климат >> Архив погоды >> Россия >> Краснодарский край >> Армавир


АРХИВ ПОГОДЫ в Армавире

Время (UTC), дата Ветер
(напр.,м/с)
 
Видим.   Явления Облачность Т
(С)
Тd
(С)
f
(%)
Тe
(С)
Тes
(С)
Комфортность P
(гПа)
Po
(гПа)
Тmin
(С)
Tmax
(С)
R
(мм)
R24
(мм)
S
(см)
12 9.09 В 6-12
{16}
10 км ясно +25.3 +2.1 22 +24 +27 комфорт 1018.2 1000.0
15 9.09 В 4-10
{14}
10 км ясно +24.2 +0.9 22 +23 +23 комфорт 1018.1 999.7 +25.7
18 9.09 В 5
{11}
10 км ясно +21.0 +5.5 36 +22 +22 комфорт 1018.9 1000.3
21 9.09 В 6-11
{14}
10 км ясно +18.7 +6.1 44 +19 +19 тепло 1019.0 1000.3
00 10.09 В 3
{13}
10 км ясно +16.3 +7.5 56 +16 +16 тепло 1018.9 1000.1
03 10.09 В 3 10 км ясно +15.4 +7.0 57 +15 +15 по сезону 1019.8 1000.9 +15.4
06 10.09 В 6-12
{12}
10 км ясно +20.8 +9.0 47 +22 +24 комфорт 1020.0 1001.4
09 10.09 В 6-13
{15}
10 км 1/1 600 м
[Cu hum]
+24.9 +3.7 25 +24 +28 комфорт 1019.3 1001.0
12 10.09 В 7-13
{17}
10 км 6/6 600 м
[Cu hum]
+26.2 +3.3 23 +25 +26 комфорт 1018.3 1000.1
15 10.09 В 5-10
{16}
10 км 5/5 1000 м
[Sc]
+25.2 +3.2 24 +24 +24 комфорт 1018.6 1000.3 +26.8
18 10.09 В 2
{10}
10 км ясно +21.2 +5.0 35 +22 +22 комфорт 1020.1 1001.5
21 10.09 В 3
{12}
10 км ясно +19.0 +5.2 40 +20 +20 тепло 1020.7 1002.0
00 11.09 В 3 10 км ясно +17.4 +11.4 68 +17 +17 тепло 1021.1 1002.3
03 11.09 В 2 10 км ясно +15.6 +11.6 77 +16 +16 тепло 1022.1 1003.2 +15.2
06 11.09 В 6-11
{13}
10 км 6/6 300 м
[Cu hum]
+21.3 +12.9 59 +24 +25 комфорт 1022.5 1004.0
09 11.09 В 7-15
{15}
10 км 3/3 600 м
[Cu hum]
+25.9 +6.8 30 +26 +28 жарко 1022.1 1003.8
12 11.09 В 5-11
{15}
10 км 5/5 600 м
[Sc diur, vesp]
+26.9 +5.4 25 +26 +28 жарко 1021.7 1003.5
15 11.09 В 4-10
{13}
10 км 1/1 600 м
[Sc]
+25.9 +2.0 21 +24 +25 комфорт 1021.9 1003.6 +27.4
18 11.09 В 3
{10}
10 км ясно +21.7 +3.8 31 +22 +22 комфорт 1023.3 1004.7
21 11.09 В 2 10 км ясно +17.8 +4.6 42 +18 +18 тепло 1023.3 1004.5
00 12.09 В 2 10 км ясно +16.6 +6.8 52 +17 +17 тепло 1023.0 1004.1
03 12.09 В 1 10 км ясно +13.9 +8.1 68 +14 +14 по сезону 1023.9 1004.9 +13.1
06 12.09 В 5
{10}
10 км ясно +22.1 +5.2 33 +22 +25 комфорт 1023.9 1005.3 +12.2
09 12.09 В 5-11
{13}
10 км ясно +25.9 +2.3 22 +25 +31 комфорт 1022.6 1004.3
12 12.09 В 5-10
{15}
10 км ясно +26.8 +3.0 22 +25 +29 комфорт 1021.6 1003.3
15 12.09 В 4
{12}
10 км ясно +24.8 +1.3 21 +24 +24 комфорт 1021.6 1003.2 +27.0
18 12.09 В 3 10 км ясно +20.1 +2.2 30 +21 +21 комфорт 1022.1 1003.5
21 12.09 В 3 10 км ясно +18.2 +3.9 39 +18 +18 тепло 1021.9 1003.1
00 13.09 В 2 10 км ясно +16.4 +5.9 50 +17 +17 тепло 1021.4 1002.5
03 13.09 В 1 10 км ясно +14.8 +5.6 54 +15 +15 по сезону 1022.2 1003.2 +14.8
06 13.09 В 4 10 км ясно +21.8 +8.3 42 +23 +27 комфорт 1022.6 1004.1 +14.5
09 13.09 В 5-11
{11}
10 км ясно +25.8 +2.1 21 +24 +31 комфорт 1021.2 1002.9
12 13.09 В 5-10
{13}
10 км ясно +26.7 +3.1 22 +25 +29 комфорт 1019.8 1001.5
15 13.09 В 4
{11}
10 км ясно +24.8 +2.4 23 +24 +24 комфорт 1019.6 1001.2 +26.9
18 13.09 В 3 10 км ясно +20.1 +5.1 37 +21 +21 комфорт 1020.5 1001.9
21 13.09 В 2 10 км ясно +18.8 +6.2 44 +20 +20 тепло 1020.3 1001.6
00 14.09 СВ 1 10 км ясно +15.4 +7.8 60 +16 +16 тепло 1020.0 1001.1
03 14.09 В 2 10 км ясно +13.8 +7.9 68 +13 +13 по сезону 1020.2 1001.2 +12.6
06 14.09 ЮВ 3 10 км ясно +21.1 +8.8 45 +22 +27 комфорт 1019.5 1001.0
09 14.09 ЮВ 3 10 км ясно +26.3 +5.6 27 +26 +35 жарко 1017.8 999.6
12 14.09 В 1 10 км 1/0
[Ci fib]
+28.6 -1.5 14 +26 +34 жарко 1016.1 998.0
15 14.09 штиль 0 10 км ясно +26.2 +2.4 21 +25 +25 комфорт 1015.3 997.1 +29.2
18 14.09 ЮВ 1 10 км 1/0
[Ac trans]
+18.5 +4.1 38 +20 +20 тепло 1016.4 997.7
21 14.09 ЮВ 1 10 км ясно +14.7 +5.8 55 +15 +15 тепло 1017.2 998.3
00 15.09 ЮВ 1 10 км ясно +12.4 +6.2 66 +13 +13 по сезону 1017.8 998.8
03 15.09 ЮВ 1 10 км 8/0
[Ci]
+11.0 +6.7 75 +11 +11 по сезону 1018.9 999.7 +10.8
06 15.09 ЮЗ 2 10 км 10/0
[Ci]
+20.1 +7.0 43 +22 +26 комфорт 1018.8 1000.2
09 15.09 СЗ 3 10 км 10/0
[Ci]
+25.7 +2.3 22 +24 +32 комфорт 1018.4 1000.1
12 15.09 СЗ 3 10 км 3/0
[Ci sp]
+27.8 +2.4 19 +26 +31 жарко 1017.4 999.3
15 15.09 С 2 10 км 1/0
[Ci fib]
+24.1 +4.0 27 +24 +24 комфорт 1018.2 999.8 +28.1
18 15.09 СЗ 1 10 км ясно +15.8 +7.5 58 +17 +17 тепло 1020.2 1001.3
21 15.09 С 1 10 км ясно +15.5 +6.8 56 +16 +16 тепло 1020.1 1001.2
00 16.09 ЮВ 1 10 км ясно +14.8 +6.7 58 +15 +15 тепло 1019.8 1000.9
03 16.09 штиль 0 10 км ясно +10.5 +6.4 76 +10 +10 прохладно 1019.3 1000.1 +10.4
06 16.09 ЮВ 3 10 км ясно +19.8 +6.8 43 +21 +25 комфорт 1017.4 998.8 +10.0
09 16.09 Ю 1 10 км ясно +26.7 +4.1 23 +25 +39 комфорт 1014.9 996.8

 

Местоположение метеостанции Армавир (Краснодарский край, Россия): широта 44.98 долгота 41.12 высота над уровнем моря 159 м.

В архиве по умолчанию представлена погода в Армавире за последнюю неделю. Архивные данные за месяц целиком и за предыдущие месяцы, начиная с января 2011 года, Вы можете получить, выбрав интересующий диапазон дат из раскрывающегося списка и нажав кнопку "Ввод!".


*Определитесь, кто Вы:
робот инопланетянин человек

Внимание! Время в таблицах - всемирное. Для получения местного времени необходимо прибавить поправку, которая равна 3 ч.

Смотрите также архив погоды в соседних городах и на ближайших метеорологических станциях:

Погода в Лабинске (Краснодарский край, Россия) (45 км)
Погода в Даховской (Адыгея, Россия) (45 км)
Погода в Новоалександровске (Ставропольский край, Россия) (58 км)
Погода в Дондуковской (Адыгея, Россия) (62 км)
Погода в Изобильном (Ставропольский край, Россия) (63 км)
Погода в Кропоткине (Краснодарский край, Россия) (66 км)
Погода в Отрадной (Краснодарский край, Россия) (71 км)
Погода в Ставрополе (Ставропольский край, Россия) (77 км)
Погода в Невинномысске (Ставропольский край, Россия) (78 км)
Погода в Майкопе (Адыгея, Россия) (91 км)

Пояснения к столбцам:

Ветер - указаны скорость ветра в м/с - средняя за 10 мин, порывы в срок и между сроками (в фигурных скобках) и направление, откуда дует ветер: С - северный, СВ - северо-восточный, В - восточный, ЮВ - юго-восточный, Ю - южный, ЮЗ - юго-западный, З - западный, СЗ - северо-западный.
Видимость - горизонтальная дальность видимости в метрах или километрах. При видимости от 1 до 10 км при отсутствии осадков обычно наблюдается дымка, при ухудшении видимости до 1 км и менее - туман. В сухую погоду видимость может ухудшаться дымом, пылью или мглою.
Явления - указаны атмосферные явления, наблюдавшиеся в срок или в последний час перед сроком; фигурными скобками обозначены явления, наблюдавшиеся между сроками (за 1-3 часа до срока); квадратными скобками обозначены град или гололедные отложения с указанием их диаметра в мм.
Облачность - указаны через наклонную черту общая и нижняя облачность в баллах и высота нижней границы облаков в метрах; квадратными скобками обозначены формы облаков: Ci - перистые, Cs - перисто-слоистые, Cc - перисто-кучевые, Ac - высококучевые, As - высокослоистые, Sc - слоисто-кучевые, Ns - слоисто-дождевые, Cu - кучевые, Cb - кучево-дождевые. Подробнее классификацию облаков см. в Атласе облаков (PDF).
T - Температура воздуха - температура, измеренная на высоте 2 м над землей.
Td - Температура точки росы - температура, при понижении до которой содержащийся в воздухе водяной пар достигнет насыщения.
f - Относительная влажность воздуха - влажноcть воздуха, измеренная на высоте 2 м над землей.
Te - Эффективная температура - температура, которую ощущает одетый по сезону человек в тени. Характеристика душности погоды. При расчете учитывается влияние влажности воздуха и скорости ветра на теплоощущения человека.
Tes - Эффективная температура на солнце - температура, которую ощущает человек, с поправкой на солнечный нагрев. Характеристика знойности погоды. Зависит от высоты солнца над горизонтом, облачности и скорости ветра. Ночью, в пасмурную погоду, а также при ветре 12 м/с и более поправка равна нулю.
P - Атмосферное давление - приведенное к уровню моря атмосферное давление.
Po - Атмосферное давление - измеренное на уровне метеостанции атмосферное давление.
Tmin - Минимальная температура - минимум температуры воздуха на высоте 2 м над землей.
Tmax - Максимальная температура - максимум температуры воздуха на высоте 2 м над землей.
R - Количество осадков - Количество выпавших осадков за период времени, мм. При наведении курсора мыши на число - период времени, за который выпало указанное количество осадков.
R24 - Количество осадков - Количество выпавших осадков за 24 часа, мм.
S - Снежный покров - Высота снежного покрова, см. При наведении курсора мыши на число - состояние снежного покрова и степень покрытия местности в баллах.